Regional Weather Roundup
Issued by NWS Cleveland, OH

Home | Current Version | Previous Version | Graphics & Text | Print | Product List | Glossary On
Versions: 1 2 3 4 5 6 7 8 9 10 11 12 13 14 15 16 17 18 19 20 21 22 23 24 25 26 27 28 29 30 31 32 33 34 35 36 37 38 39 40 41 42 43 44 45 46 47 48 49 50
000
ASUS41 KCLE 070302
RWRCLE
OHIO REGIONAL WEATHER ROUNDUP
NATIONAL WEATHER SERVICE CLEVELAND, OH
1000 PM EST FRI MAR 06 2015

NOTE: "FAIR" INDICATES FEW OR NO CLOUDS BELOW 12,000 FEET WITH NO
SIGNIFICANT WEATHER AND/OR OBSTRUCTIONS TO VISIBILITY.

OHZ001>008-015>018-024>027-034-035-043-044-070400-
   NORTHWEST OHIO

CITY           SKY/WX    TMP DP  RH WIND       PRES   REMARKS
DEFIANCE       CLEAR     21  10  62 S10       30.25F WCI  10
FINDLAY        CLEAR     21  10  62 S15       30.26S WCI   8
TOLEDO EXPRESS CLEAR     20  10  65 SW10G18   30.24S WCI   9
TOLEDO EXEC    CLEAR     21   9  59 S9        30.26S WCI  11
LIMA           CLEAR     23  11  60 S13       30.26S WCI  11
$$

OHZ009>014-019>023-028>033-038-089-070400-
   NORTHEAST OHIO

CITY           SKY/WX    TMP DP  RH WIND       PRES   REMARKS
CLE-HOPKINS    MOCLDY    20   5  52 S15G25    30.29F WCI   6
CLE-LAKEFRONT  MOCLDY    22   6  50 S20G29    30.25F WCI   7
CUY CO. ARPT   PTCLDY    21   7  53 SW16      30.26F WCI   7
LORAIN-ELYRIA  CLOUDY    19   8  62 SW14      30.27F WCI   6
ASHTABULA      PTCLDY    19   3  49 S12       30.26S WCI   7
AKRON-CANTON   CLEAR     18   6  59 SW13      30.29S WCI   5
WOOSTER        CLEAR     17   6  62 SW14      30.28F WCI   3
MANSFIELD      CLEAR     18   7  62 S18       30.26F WCI   2
YOUNGSTOWN     PTCLDY    18   4  54 S8        30.27S WCI   8
$$

OHZ042-051>053-060>062-070>072-077>081-070400-
  SOUTHWEST OHIO

CITY           SKY/WX    TMP DP  RH WIND       PRES   REMARKS
CINC-COVINGTON   N/A     22  12  65 S10       30.36F WCI  11
CINC-LUNKEN    CLEAR     20  14  77 S7        30.41F WCI  11
HAMILTON       CLEAR     24  13  62 S6        30.38S WCI  17
DAYTON         CLEAR     24  11  57 S17       30.31F WCI  11
WRIGHT-PAT AFB CLEAR     22  13  68 S10       30.33F WCI  12
DAYTON GENERAL CLEAR     22  14  71 S12       30.33F WCI  10
WILMINGTON     CLEAR     17   9  70 S10       30.34F WCI   5
$$

OHZ036-037-039>041-045>050-054>059-063>069-073>076-082>088-070400-
  CENTRAL AND SOUTHEAST OHIO

CITY           SKY/WX    TMP DP  RH WIND       PRES   REMARKS
COLUMBUS       PTCLDY    19   9  65 S9        30.36S WCI   8
OSU AIRPORT    PTCLDY    20  11  68 S10       30.34S WCI   9
BOLTON FIELD   PTCLDY   N/A N/A N/A S13       30.35S
RICKENBACK AFB CLEAR     19  10  68 S9        30.37S WCI   7
NEWARK         CLEAR     17   8  67 S5        30.35S WCI  10
MARION         CLEAR     19   9  65 S16       30.29S WCI   4
LANCASTER      CLEAR     17  10  74 S6        30.37S WCI   9
ZANESVILLE     CLEAR     17  10  74 S7        30.37R WCI   8
NEW PHILLY     CLEAR     20  12  71 S5        30.35R WCI  13
$$


USA.gov is the U.S. government's official web portal to all federal, state and local government web resources and services.